Time,TemperatureF,DewpointF,PressureIn,WindDirection,WindDirectionDegrees,WindSpeedMPH,WindSpeedGustMPH,Humidity,HourlyPrecipIn,Conditions,Clouds,dailyrainin,SoftwareType,DateUTC
2013-07-22 00:00:00,72.9,71.7,30.03,SSW,202,2.0,3.0,96,0.00,,---,0.03,VWS V14.01,2013-07-22 04:00:00,
2013-07-22 00:01:00,73.0,71.8,30.03,WSW,237,0.0,1.0,96,0.00,,---,0.00,VWS V14.01,2013-07-22 04:01:00,
2013-07-22 00:02:00,73.0,71.8,30.03,WSW,243,1.0,2.0,96,0.00,,---,0.00,VWS V14.01,2013-07-22 04:02:00,
2013-07-22 00:04:00,72.9,71.7,30.03,SW,228,0.0,4.0,96,0.00,,---,0.00,VWS V14.01,2013-07-22 04:04:00,
2013-07-22 00:05:00,72.9,71.7,30.03,SW,234,0.0,4.0,96,0.00,,---,0.00,VWS V14.01,2013-07-22 04:05:00,
2013-07-22 00:10:00,72.9,71.7,30.02,WNW,292,0.0,4.0,96,0.00,,---,0.00,VWS V14.01,2013-07-22 04:10:00,
2013-07-22 00:15:00,72.9,71.7,30.02,WSW,255,0.0,4.0,96,0.00,,---,0.00,VWS V14.01,2013-07-22 04:15:00,
2013-07-22 00:20:00,72.9,71.7,30.02,West,271,0.0,2.0,96,0.00,,---,0.00,VWS V14.01,2013-07-22 04:20:00,
2013-07-22 00:25:00,72.9,71.4,30.02,West,281,0.0,2.0,95,0.00,,---,0.00,VWS V14.01,2013-07-22 04:25:00,
2013-07-22 00:30:00,72.9,71.4,30.02,West,264,0.0,3.0,95,0.00,,---,0.00,VWS V14.01,2013-07-22 04:30:00,
2013-07-22 00:35:00,72.9,71.4,30.01,West,276,0.0,1.0,95,0.00,,---,0.00,VWS V14.01,2013-07-22 04:35:00,
2013-07-22 00:40:00,72.9,71.4,30.01,WSW,240,1.0,3.0,95,0.00,,---,0.00,VWS V14.01,2013-07-22 04:40:00,
2013-07-22 00:45:00,72.9,71.4,30.01,WSW,240,0.0,0.0,95,0.00,,---,0.00,VWS V14.01,2013-07-22 04:45:00,
2013-07-22 00:50:00,72.9,71.4,30.01,SSW,203,5.0,5.0,95,0.00,,---,0.00,VWS V14.01,2013-07-22 04:50:00,
2013-07-22 00:55:00,72.9,71.4,30.00,WNW,284,0.0,5.0,95,0.00,,---,0.00,VWS V14.01,2013-07-22 04:55:00,
2013-07-22 01:01:00,72.9,71.4,30.00,West,275,0.0,2.0,95,0.00,,---,0.00,VWS V14.01,2013-07-22 05:01:00,
2013-07-22 01:06:00,72.9,71.4,30.00,West,281,0.0,2.0,95,0.00,,---,0.00,VWS V14.01,2013-07-22 05:06:00,
2013-07-22 01:11:00,72.9,71.4,29.99,West,265,1.0,3.0,95,0.00,,---,0.00,VWS V14.01,2013-07-22 05:11:00,
2013-07-22 01:16:00,72.8,71.3,29.99,WNW,283,0.0,2.0,95,0.00,,---,0.00,VWS V14.01,2013-07-22 05:16:00,
2013-07-22 01:21:00,72.8,71.3,29.99,WNW,302,0.0,2.0,95,0.00,,---,0.00,VWS V14.01,2013-07-22 05:21:00,
2013-07-22 01:26:00,72.8,71.3,29.99,NW,319,0.0,4.0,95,0.00,,---,0.00,VWS V14.01,2013-07-22 05:26:00,
2013-07-22 01:31:00,72.9,71.4,29.99,WSW,248,3.0,4.0,95,0.00,,---,0.00,VWS V14.01,2013-07-22 05:31:00,
2013-07-22 01:36:00,72.8,71.3,29.98,West,279,2.0,8.0,95,0.00,,---,0.00,VWS V14.01,2013-07-22 05:36:00,
2013-07-22 01:41:00,72.9,71.4,29.98,WNW,303,0.0,8.0,95,0.00,,---,0.00,VWS V14.01,2013-07-22 05:41:00,
2013-07-22 01:46:00,72.8,71.0,29.98,WNW,302,0.0,2.0,94,0.00,,---,0.00,VWS V14.01,2013-07-22 05:46:00,
2013-07-22 01:51:00,72.9,71.4,29.98,WNW,301,0.0,2.0,95,0.00,,---,0.00,VWS V14.01,2013-07-22 05:51:00,
2013-07-22 01:57:00,72.8,71.3,29.97,WNW,301,0.0,2.0,95,0.00,,---,0.00,VWS V14.01,2013-07-22 05:57:00,
2013-07-22 02:02:00,72.8,71.0,29.97,WNW,301,1.0,1.0,94,0.00,,---,0.00,VWS V14.01,2013-07-22 06:02:00,
2013-07-22 02:07:00,72.8,71.0,29.97,WNW,301,0.0,1.0,94,0.00,,---,0.00,VWS V14.01,2013-07-22 06:07:00,
2013-07-22 02:12:00,72.8,71.3,29.97,WNW,301,0.0,1.0,95,0.00,,---,0.00,VWS V14.01,2013-07-22 06:12:00,
2013-07-22 02:17:00,72.8,71.3,29.97,WNW,301,0.0,1.0,95,0.00,,---,0.00,VWS V14.01,2013-07-22 06:17:00,
2013-07-22 02:22:00,72.8,71.3,29.97,NW,314,0.0,2.0,95,0.00,,---,0.00,VWS V14.01,2013-07-22 06:22:00,
2013-07-22 02:27:00,72.8,71.3,29.97,NW,314,0.0,3.0,95,0.00,,---,0.00,VWS V14.01,2013-07-22 06:27:00,
2013-07-22 02:32:00,72.8,71.3,29.96,NW,315,1.0,5.0,95,0.00,,---,0.00,VWS V14.01,2013-07-22 06:32:00,
2013-07-22 02:38:00,72.8,71.3,29.96,NW,304,1.0,5.0,95,0.00,,---,0.00,VWS V14.01,2013-07-22 06:38:00,
2013-07-22 02:43:00,72.7,70.9,29.96,NNW,344,6.0,7.0,94,0.00,,---,0.00,VWS V14.01,2013-07-22 06:43:00,
2013-07-22 02:48:00,72.7,70.9,29.96,WNW,298,0.0,4.0,94,0.00,,---,0.00,VWS V14.01,2013-07-22 06:48:00,
2013-07-22 02:53:00,72.6,70.8,29.96,WNW,298,1.0,4.0,94,0.00,,---,0.00,VWS V14.01,2013-07-22 06:53:00,
2013-07-22 02:58:00,72.6,70.8,29.96,West,272,1.0,5.0,94,0.00,,---,0.00,VWS V14.01,2013-07-22 06:58:00,
2013-07-22 03:03:00,72.6,70.8,29.96,NW,323,1.0,1.0,94,0.00,,---,0.00,VWS V14.01,2013-07-22 07:03:00,
2013-07-22 03:08:00,72.6,70.8,29.95,NW,323,0.0,1.0,94,0.00,,---,0.00,VWS V14.01,2013-07-22 07:08:00,
2013-07-22 03:13:00,72.5,70.7,29.95,NW,323,0.0,1.0,94,0.00,,---,0.00,VWS V14.01,2013-07-22 07:13:00,
2013-07-22 03:18:00,72.4,70.9,29.95,NW,323,0.0,1.0,95,0.00,,---,0.00,VWS V14.01,2013-07-22 07:18:00,
2013-07-22 03:24:00,72.4,70.9,29.95,NW,323,0.0,1.0,95,0.00,,---,0.00,VWS V14.01,2013-07-22 07:24:00,
2013-07-22 03:29:00,72.3,70.8,29.94,NW,323,0.0,1.0,95,0.00,,---,0.00,VWS V14.01,2013-07-22 07:29:00,
2013-07-22 03:34:00,72.3,70.8,29.94,NW,323,0.0,0.0,95,0.00,,---,0.00,VWS V14.01,2013-07-22 07:34:00,
2013-07-22 03:39:00,72.3,70.8,29.94,NW,323,0.0,0.0,95,0.00,,---,0.00,VWS V14.01,2013-07-22 07:39:00,
2013-07-22 03:44:00,72.1,70.3,29.94,NW,323,0.0,0.0,94,0.00,,---,0.00,VWS V14.01,2013-07-22 07:44:00,
2013-07-22 03:49:00,72.1,70.6,29.94,NW,323,0.0,0.0,95,0.00,,---,0.00,VWS V14.01,2013-07-22 07:49:00,
2013-07-22 03:54:00,72.1,70.6,29.95,NW,323,0.0,0.0,95,0.00,,---,0.00,VWS V14.01,2013-07-22 07:54:00,
2013-07-22 03:59:00,72.0,70.5,29.95,NW,323,0.0,0.0,95,0.00,,---,0.00,VWS V14.01,2013-07-22 07:59:00,
2013-07-22 04:04:00,71.9,70.4,29.95,NW,323,0.0,0.0,95,0.00,,---,0.00,VWS V14.01,2013-07-22 08:04:00,
2013-07-22 04:09:00,71.8,70.3,29.95,NW,323,0.0,0.0,95,0.00,,---,0.00,VWS V14.01,2013-07-22 08:09:00,
2013-07-22 04:14:00,71.7,70.2,29.95,NW,323,0.0,0.0,95,0.00,,---,0.00,VWS V14.01,2013-07-22 08:14:00,
2013-07-22 04:19:00,71.7,70.2,29.95,NW,323,0.0,0.0,95,0.00,,---,0.00,VWS V14.01,2013-07-22 08:19:00,
2013-07-22 04:24:00,71.7,70.2,29.95,NW,323,0.0,0.0,95,0.00,,---,0.00,VWS V14.01,2013-07-22 08:24:00,
2013-07-22 04:29:00,71.6,70.1,29.95,NW,319,0.0,0.0,95,0.00,,---,0.00,VWS V14.01,2013-07-22 08:29:00,
2013-07-22 04:34:00,71.6,70.4,29.95,SW,223,0.0,0.0,96,0.00,,---,0.00,VWS V14.01,2013-07-22 08:34:00,
2013-07-22 04:40:00,71.6,70.4,29.95,SW,235,0.0,0.0,96,0.00,,---,0.00,VWS V14.01,2013-07-22 08:40:00,
2013-07-22 04:45:00,71.5,70.3,29.95,SW,215,1.0,3.0,96,0.00,,---,0.00,VWS V14.01,2013-07-22 08:45:00,
2013-07-22 04:50:00,71.5,70.3,29.95,SSW,212,0.0,2.0,96,0.00,,---,0.00,VWS V14.01,2013-07-22 08:50:00,
2013-07-22 04:55:00,71.5,70.3,29.95,SW,222,0.0,2.0,96,0.00,,---,0.00,VWS V14.01,2013-07-22 08:55:00,
2013-07-22 05:00:00,71.6,70.4,29.95,SW,222,1.0,2.0,96,0.00,,---,0.00,VWS V14.01,2013-07-22 09:00:00,
2013-07-22 05:05:00,71.6,70.4,29.96,SSW,197,0.0,3.0,96,0.00,,---,0.00,VWS V14.01,2013-07-22 09:05:00,
2013-07-22 05:10:00,71.7,70.5,29.95,SSW,198,0.0,3.0,96,0.00,,---,0.00,VWS V14.01,2013-07-22 09:10:00,
2013-07-22 05:15:00,71.7,70.5,29.95,SSW,210,2.0,3.0,96,0.00,,---,0.00,VWS V14.01,2013-07-22 09:15:00,
2013-07-22 05:20:00,71.6,70.4,29.95,SSW,202,0.0,3.0,96,0.00,,---,0.00,VWS V14.01,2013-07-22 09:20:00,
2013-07-22 05:25:00,71.6,70.4,29.95,South,187,0.0,3.0,96,0.00,,---,0.00,VWS V14.01,2013-07-22 09:25:00,
2013-07-22 05:30:00,71.6,70.4,29.96,WSW,244,0.0,0.0,96,0.00,,---,0.00,VWS V14.01,2013-07-22 09:30:00,
2013-07-22 05:35:00,71.6,70.4,29.96,WSW,240,0.0,3.0,96,0.00,,---,0.00,VWS V14.01,2013-07-22 09:35:00,
2013-07-22 05:40:00,71.6,70.4,29.96,WSW,253,1.0,3.0,96,0.00,,---,0.00,VWS V14.01,2013-07-22 09:40:00,
2013-07-22 05:45:00,71.6,70.4,29.97,WSW,251,0.0,0.0,96,0.00,,---,0.00,VWS V14.01,2013-07-22 09:45:00,
2013-07-22 05:50:00,71.7,70.5,29.96,WSW,247,0.0,3.0,96,0.00,,---,0.00,VWS V14.01,2013-07-22 09:50:00,
2013-07-22 05:55:00,71.7,70.5,29.97,WSW,238,0.0,3.0,96,0.00,,---,0.00,VWS V14.01,2013-07-22 09:55:00,
2013-07-22 06:00:00,71.7,70.5,29.97,West,263,0.0,0.0,96,0.00,,---,0.00,VWS V14.01,2013-07-22 10:00:00,
2013-07-22 06:06:00,71.6,70.4,29.97,West,263,0.0,0.0,96,0.00,,---,0.00,VWS V14.01,2013-07-22 10:06:00,
2013-07-22 06:11:00,71.5,70.3,29.97,West,260,0.0,0.0,96,0.00,,---,0.00,VWS V14.01,2013-07-22 10:11:00,
2013-07-22 06:14:00,71.4,70.2,29.98,WSW,257,0.0,2.0,96,0.00,,---,0.00,VWS V14.01,2013-07-22 10:14:00,
2013-07-22 06:19:00,71.4,70.2,29.98,SSW,209,0.0,3.0,96,0.00,,---,0.00,VWS V14.01,2013-07-22 10:19:00,
2013-07-22 06:24:00,71.3,70.1,29.98,SW,215,0.0,3.0,96,0.00,,---,0.00,VWS V14.01,2013-07-22 10:24:00,
2013-07-22 06:29:00,71.3,70.1,29.98,West,276,0.0,5.0,96,0.00,,---,0.00,VWS V14.01,2013-07-22 10:29:00,
2013-07-22 06:34:00,71.5,70.3,29.98,WSW,239,1.0,6.0,96,0.00,,---,0.00,VWS V14.01,2013-07-22 10:34:00,
2013-07-22 06:39:00,71.5,70.3,29.98,SW,221,1.0,6.0,96,0.00,,---,0.00,VWS V14.01,2013-07-22 10:39:00,
2013-07-22 06:44:00,71.4,70.2,29.98,WNW,282,0.0,6.0,96,0.00,,---,0.00,VWS V14.01,2013-07-22 10:44:00,
2013-07-22 06:49:00,71.4,70.2,29.98,West,267,0.0,5.0,96,0.00,,---,0.00,VWS V14.01,2013-07-22 10:49:00,
2013-07-22 06:54:00,71.4,69.9,29.98,South,190,0.0,5.0,95,0.00,,---,0.00,VWS V14.01,2013-07-22 10:54:00,
2013-07-22 06:59:00,71.3,69.8,29.99,SW,229,1.0,6.0,95,0.00,,---,0.00,VWS V14.01,2013-07-22 10:59:00,
2013-07-22 07:05:00,71.3,69.8,29.98,WNW,292,0.0,3.0,95,0.00,,---,0.00,VWS V14.01,2013-07-22 11:05:00,
2013-07-22 07:10:00,71.3,69.8,29.99,WSW,253,0.0,3.0,95,0.00,,---,0.00,VWS V14.01,2013-07-22 11:10:00,
2013-07-22 07:15:00,71.3,69.8,29.99,West,271,0.0,4.0,95,0.00,,---,0.00,VWS V14.01,2013-07-22 11:15:00,
2013-07-22 07:20:00,71.4,69.9,29.99,NW,306,0.0,2.0,95,0.00,,---,0.00,VWS V14.01,2013-07-22 11:20:00,
2013-07-22 07:25:00,71.3,69.8,29.99,SSW,198,2.0,5.0,95,0.00,,---,0.00,VWS V14.01,2013-07-22 11:25:00,
2013-07-22 07:30:00,71.3,69.8,29.99,WNW,288,2.0,5.0,95,0.00,,---,0.00,VWS V14.01,2013-07-22 11:30:00,
2013-07-22 07:35:00,71.3,69.8,29.99,WNW,300,2.0,3.0,95,0.00,,---,0.00,VWS V14.01,2013-07-22 11:35:00,
2013-07-22 07:40:00,71.3,69.8,29.99,West,275,0.0,7.0,95,0.00,,---,0.00,VWS V14.01,2013-07-22 11:40:00,
2013-07-22 07:45:00,71.4,69.9,29.99,West,267,0.0,7.0,95,0.00,,---,0.00,VWS V14.01,2013-07-22 11:45:00,
2013-07-22 07:50:00,71.5,70.0,30.00,West,261,0.0,8.0,95,0.00,,---,0.00,VWS V14.01,2013-07-22 11:50:00,
2013-07-22 07:55:00,71.5,70.0,30.00,SW,227,0.0,8.0,95,0.00,,---,0.00,VWS V14.01,2013-07-22 11:55:00,
2013-07-22 08:00:00,71.4,69.9,30.00,WSW,250,2.0,3.0,95,0.00,,---,0.00,VWS V14.01,2013-07-22 12:00:00,
2013-07-22 08:05:00,71.4,69.9,30.00,NW,304,1.0,3.0,95,0.00,,---,0.00,VWS V14.01,2013-07-22 12:05:00,
2013-07-22 08:10:00,71.8,70.3,30.00,West,279,0.0,3.0,95,0.00,,---,0.00,VWS V14.01,2013-07-22 12:10:00,
2013-07-22 08:15:00,72.0,70.5,30.00,NW,304,1.0,3.0,95,0.00,,---,0.00,VWS V14.01,2013-07-22 12:15:00,
2013-07-22 08:20:00,72.2,70.4,30.00,SW,220,0.0,6.0,94,0.00,,---,0.00,VWS V14.01,2013-07-22 12:20:00,
2013-07-22 08:26:00,72.5,70.7,30.01,WSW,250,1.0,6.0,94,0.00,,---,0.00,VWS V14.01,2013-07-22 12:26:00,
2013-07-22 08:31:00,72.6,70.5,30.01,WNW,299,0.0,1.0,93,0.00,,---,0.00,VWS V14.01,2013-07-22 12:31:00,
2013-07-22 08:36:00,72.7,70.6,30.01,SSW,202,0.0,5.0,93,0.00,,---,0.00,VWS V14.01,2013-07-22 12:36:00,
2013-07-22 08:41:00,73.0,70.5,30.01,SSW,209,1.0,5.0,92,0.00,,---,0.00,VWS V14.01,2013-07-22 12:41:00,
2013-07-22 08:46:00,73.2,70.7,30.01,West,275,1.0,2.0,92,0.00,,---,0.00,VWS V14.01,2013-07-22 12:46:00,
2013-07-22 08:51:00,73.5,71.0,30.01,WSW,252,1.0,3.0,92,0.00,,---,0.00,VWS V14.01,2013-07-22 12:51:00,
2013-07-22 08:56:00,73.6,70.8,30.00,SSW,200,2.0,3.0,91,0.00,,---,0.00,VWS V14.01,2013-07-22 12:56:00,
2013-07-22 09:01:00,73.7,70.9,30.00,South,184,0.0,3.0,91,0.00,,---,0.00,VWS V14.01,2013-07-22 13:01:00,
2013-07-22 09:06:00,73.9,71.1,30.01,West,259,0.0,5.0,91,0.00,,---,0.00,VWS V14.01,2013-07-22 13:06:00,
2013-07-22 09:11:00,74.3,71.2,30.01,WSW,258,1.0,5.0,90,0.00,,---,0.00,VWS V14.01,2013-07-22 13:11:00,
2013-07-22 09:16:00,74.3,71.2,30.00,South,187,2.0,3.0,90,0.00,,---,0.00,VWS V14.01,2013-07-22 13:16:00,
2013-07-22 09:21:00,74.2,71.1,30.01,West,268,1.0,7.0,90,0.00,,---,0.00,VWS V14.01,2013-07-22 13:21:00,
2013-07-22 09:26:00,74.7,71.6,30.01,NW,317,1.0,7.0,90,0.00,,---,0.00,VWS V14.01,2013-07-22 13:26:00,
2013-07-22 09:32:00,74.6,71.2,30.01,West,259,0.0,3.0,89,0.00,,---,0.00,VWS V14.01,2013-07-22 13:32:00,
2013-07-22 09:37:00,74.9,71.1,30.01,SSW,198,2.0,5.0,88,0.00,,---,0.00,VWS V14.01,2013-07-22 13:37:00,
2013-07-22 09:42:00,74.9,71.1,30.01,West,281,2.0,5.0,88,0.00,,---,0.00,VWS V14.01,2013-07-22 13:42:00,
2013-07-22 09:47:00,75.3,71.5,30.01,WNW,282,0.0,4.0,88,0.01,,---,0.01,VWS V14.01,2013-07-22 13:47:00,
2013-07-22 09:52:00,75.2,71.4,30.01,West,275,0.0,4.0,88,0.01,,---,0.01,VWS V14.01,2013-07-22 13:52:00,
2013-07-22 09:57:00,75.5,71.7,30.01,West,259,0.0,4.0,88,0.01,,---,0.01,VWS V14.01,2013-07-22 13:57:00,
2013-07-22 10:02:00,75.2,71.1,30.01,SW,227,0.0,7.0,87,0.01,,---,0.01,VWS V14.01,2013-07-22 14:02:00,
2013-07-22 10:07:00,75.5,71.7,30.01,SW,221,0.0,7.0,88,0.01,,---,0.01,VWS V14.01,2013-07-22 14:07:00,
2013-07-22 10:12:00,76.3,72.2,30.01,WNW,297,0.0,7.0,87,0.01,,---,0.01,VWS V14.01,2013-07-22 14:12:00,
2013-07-22 10:17:00,76.6,72.4,30.01,WNW,286,0.0,1.0,87,0.01,,---,0.01,VWS V14.01,2013-07-22 14:17:00,
2013-07-22 10:22:00,76.3,71.8,30.01,South,176,3.0,8.0,86,0.01,,---,0.01,VWS V14.01,2013-07-22 14:22:00,
2013-07-22 10:27:00,76.0,72.2,30.00,NW,322,0.0,8.0,88,0.01,,---,0.01,VWS V14.01,2013-07-22 14:27:00,
2013-07-22 10:32:00,76.4,72.2,30.00,West,261,0.0,2.0,87,0.01,,---,0.01,VWS V14.01,2013-07-22 14:32:00,
2013-07-22 10:37:00,76.8,72.3,30.01,NW,317,1.0,4.0,86,0.01,,---,0.01,VWS V14.01,2013-07-22 14:37:00,
2013-07-22 10:43:00,76.6,71.8,30.01,SW,223,4.0,4.0,85,0.01,,---,0.01,VWS V14.01,2013-07-22 14:43:00,
2013-07-22 10:48:00,76.1,71.3,30.01,West,260,3.0,6.0,85,0.00,,---,0.01,VWS V14.01,2013-07-22 14:48:00,
2013-07-22 10:53:00,76.1,71.9,30.01,WNW,299,3.0,6.0,87,0.00,,---,0.01,VWS V14.01,2013-07-22 14:53:00,
2013-07-22 10:58:00,76.8,72.3,30.01,SW,227,1.0,6.0,86,0.00,,---,0.01,VWS V14.01,2013-07-22 14:58:00,
2013-07-22 11:03:00,77.2,72.3,30.01,WNW,293,2.0,5.0,85,0.00,,---,0.01,VWS V14.01,2013-07-22 15:03:00,
2013-07-22 11:08:00,77.1,72.2,30.01,NW,306,2.0,5.0,85,0.00,,---,0.01,VWS V14.01,2013-07-22 15:08:00,
2013-07-22 11:13:00,77.0,72.2,30.01,SSW,212,2.0,5.0,85,0.00,,---,0.01,VWS V14.01,2013-07-22 15:13:00,
2013-07-22 11:18:00,76.9,72.4,30.01,SW,221,0.0,4.0,86,0.00,,---,0.01,VWS V14.01,2013-07-22 15:18:00,
2013-07-22 11:23:00,76.6,71.8,30.01,SSW,193,2.0,4.0,85,0.00,,---,0.01,VWS V14.01,2013-07-22 15:23:00,
2013-07-22 11:28:00,77.4,72.9,30.01,West,276,0.0,5.0,86,0.00,,---,0.01,VWS V14.01,2013-07-22 15:28:00,
2013-07-22 11:34:00,77.8,72.6,30.01,South,177,6.0,6.0,84,0.00,,---,0.01,VWS V14.01,2013-07-22 15:34:00,
2013-07-22 11:39:00,76.9,72.1,30.01,West,267,0.0,6.0,85,0.00,,---,0.01,VWS V14.01,2013-07-22 15:39:00,
2013-07-22 11:44:00,76.7,71.9,30.01,SSW,200,0.0,11.0,85,0.00,,---,0.01,VWS V14.01,2013-07-22 15:44:00,
2013-07-22 11:49:00,76.9,72.1,30.01,WNW,294,2.0,7.0,85,0.00,,---,0.01,VWS V14.01,2013-07-22 15:49:00,
2013-07-22 11:54:00,77.0,72.2,30.01,NW,319,0.0,7.0,85,0.00,,---,0.01,VWS V14.01,2013-07-22 15:54:00,
2013-07-22 11:59:00,76.9,72.1,30.01,West,271,0.0,7.0,85,0.00,,---,0.01,VWS V14.01,2013-07-22 15:59:00,
2013-07-22 12:05:00,76.9,72.1,30.01,WNW,296,0.0,6.0,85,0.00,,---,0.01,VWS V14.01,2013-07-22 16:05:00,
2013-07-22 12:10:00,77.6,72.7,30.01,SSW,197,3.0,6.0,85,0.00,,---,0.01,VWS V14.01,2013-07-22 16:10:00,
2013-07-22 12:15:00,77.7,72.1,30.01,South,185,2.0,7.0,83,0.00,,---,0.01,VWS V14.01,2013-07-22 16:15:00,
2013-07-22 12:20:00,76.9,72.1,30.01,WNW,284,0.0,6.0,85,0.00,,---,0.01,VWS V14.01,2013-07-22 16:20:00,
2013-07-22 12:25:00,76.6,72.1,30.01,WNW,283,0.0,6.0,86,0.00,,---,0.01,VWS V14.01,2013-07-22 16:25:00,
2013-07-22 12:30:00,76.5,71.7,30.01,NW,304,0.0,6.0,85,0.00,,---,0.01,VWS V14.01,2013-07-22 16:30:00,
2013-07-22 12:35:00,77.0,72.2,30.01,West,279,2.0,6.0,85,0.00,,---,0.01,VWS V14.01,2013-07-22 16:35:00,
2013-07-22 12:40:00,77.7,72.8,30.01,WSW,240,0.0,6.0,85,0.00,,---,0.01,VWS V14.01,2013-07-22 16:40:00,
2013-07-22 12:45:00,78.9,72.6,30.01,West,259,1.0,2.0,81,0.00,,---,0.01,VWS V14.01,2013-07-22 16:45:00,
2013-07-22 12:51:00,79.3,72.6,30.01,WNW,296,1.0,3.0,80,0.00,,---,0.01,VWS V14.01,2013-07-22 16:51:00,
2013-07-22 12:56:00,79.0,72.3,30.00,WSW,248,2.0,6.0,80,0.00,,---,0.01,VWS V14.01,2013-07-22 16:56:00,
2013-07-22 13:01:00,79.0,72.7,30.00,SSW,203,1.0,2.0,81,0.00,,---,0.01,VWS V14.01,2013-07-22 17:01:00,
2013-07-22 13:06:00,79.1,72.0,30.00,SSE,167,2.0,4.0,79,0.00,,---,0.01,VWS V14.01,2013-07-22 17:06:00,
2013-07-22 13:11:00,79.9,73.6,30.00,WNW,288,3.0,4.0,81,0.00,,---,0.01,VWS V14.01,2013-07-22 17:11:00,
2013-07-22 13:16:00,80.1,72.6,29.99,South,177,2.0,5.0,78,0.00,,---,0.01,VWS V14.01,2013-07-22 17:16:00,
2013-07-22 13:21:00,79.9,73.2,29.99,WNW,298,1.0,5.0,80,0.00,,---,0.01,VWS V14.01,2013-07-22 17:21:00,
2013-07-22 13:26:00,79.7,72.6,29.99,NNW,329,3.0,6.0,79,0.00,,---,0.01,VWS V14.01,2013-07-22 17:26:00,
2013-07-22 13:31:00,79.5,72.4,29.99,West,281,1.0,4.0,79,0.00,,---,0.01,VWS V14.01,2013-07-22 17:31:00,
2013-07-22 13:36:00,79.5,72.8,29.99,SW,234,0.0,5.0,80,0.00,,---,0.01,VWS V14.01,2013-07-22 17:36:00,
2013-07-22 13:41:00,80.0,73.3,29.98,SW,223,3.0,5.0,80,0.00,,---,0.01,VWS V14.01,2013-07-22 17:41:00,
2013-07-22 13:47:00,80.1,73.4,29.98,WSW,246,1.0,4.0,80,0.00,,---,0.01,VWS V14.01,2013-07-22 17:47:00,
2013-07-22 13:52:00,80.9,73.8,29.98,West,271,0.0,4.0,79,0.00,,---,0.01,VWS V14.01,2013-07-22 17:52:00,
2013-07-22 13:58:00,81.1,73.6,29.97,WSW,240,3.0,6.0,78,0.00,,---,0.01,VWS V14.01,2013-07-22 17:58:00,
2013-07-22 14:04:00,81.0,73.9,29.97,South,176,2.0,3.0,79,0.00,,---,0.01,VWS V14.01,2013-07-22 18:04:00,
2013-07-22 14:09:00,80.7,73.2,29.97,SSE,165,2.0,8.0,78,0.00,,---,0.01,VWS V14.01,2013-07-22 18:09:00,
2013-07-22 14:15:00,80.9,73.4,29.97,SW,234,0.0,8.0,78,0.00,,---,0.01,VWS V14.01,2013-07-22 18:15:00,
2013-07-22 14:20:00,81.1,74.0,29.96,SW,230,0.0,4.0,79,0.00,,---,0.01,VWS V14.01,2013-07-22 18:20:00,
2013-07-22 14:25:00,81.0,73.5,29.96,SW,225,3.0,4.0,78,0.00,,---,0.01,VWS V14.01,2013-07-22 18:25:00,
2013-07-22 14:31:00,81.8,73.5,29.96,South,179,3.0,4.0,76,0.00,,---,0.01,VWS V14.01,2013-07-22 18:31:00,
2013-07-22 14:36:00,82.2,73.5,29.96,SSW,213,5.0,5.0,75,0.00,,---,0.01,VWS V14.01,2013-07-22 18:36:00,
2013-07-22 14:42:00,82.1,73.8,29.95,SW,218,6.0,8.0,76,0.00,,---,0.01,VWS V14.01,2013-07-22 18:42:00,
2013-07-22 14:47:00,83.2,74.1,29.95,SW,222,2.0,4.0,74,0.00,,---,0.01,VWS V14.01,2013-07-22 18:47:00,
2013-07-22 14:52:00,83.1,74.0,29.95,South,191,3.0,6.0,74,0.00,,---,0.01,VWS V14.01,2013-07-22 18:52:00,
2013-07-22 14:58:00,83.1,74.8,29.95,West,264,0.0,7.0,76,0.00,,---,0.01,VWS V14.01,2013-07-22 18:58:00,
2013-07-22 15:04:00,83.6,74.4,29.95,South,189,1.0,7.0,74,0.00,,---,0.01,VWS V14.01,2013-07-22 19:04:00,
2013-07-22 15:11:00,83.6,74.0,29.95,SSW,194,6.0,8.0,73,0.00,,---,0.01,VWS V14.01,2013-07-22 19:11:00,
2013-07-22 15:16:00,83.1,73.6,29.95,WSW,254,6.0,9.0,73,0.00,,---,0.01,VWS V14.01,2013-07-22 19:16:00,
2013-07-22 15:21:00,82.8,73.7,29.94,WSW,252,3.0,9.0,74,0.00,,---,0.01,VWS V14.01,2013-07-22 19:21:00,
2013-07-22 15:27:00,84.1,74.9,29.94,SW,219,1.0,9.0,74,0.00,,---,0.01,VWS V14.01,2013-07-22 19:27:00,
2013-07-22 15:32:00,84.3,75.9,29.94,WNW,292,0.0,4.0,76,0.00,,---,0.01,VWS V14.01,2013-07-22 19:32:00,
2013-07-22 15:38:00,85.2,75.2,29.94,NNE,25,2.0,8.0,72,0.00,,---,0.01,VWS V14.01,2013-07-22 19:38:00,
2013-07-22 15:45:00,85.7,73.9,29.94,WSW,258,0.0,8.0,68,0.00,,---,0.01,VWS V14.01,2013-07-22 19:45:00,
2013-07-22 15:50:00,85.0,74.6,29.94,West,272,2.0,7.0,71,0.00,,---,0.01,VWS V14.01,2013-07-22 19:50:00,
2013-07-22 15:55:00,85.6,76.0,29.93,WNW,300,1.0,7.0,73,0.00,,---,0.01,VWS V14.01,2013-07-22 19:55:00,
2013-07-22 16:01:00,84.8,73.9,29.93,SSE,163,2.0,3.0,70,0.00,,---,0.01,VWS V14.01,2013-07-22 20:01:00,
2013-07-22 16:06:00,84.8,74.4,29.93,South,178,2.0,8.0,71,0.00,,---,0.01,VWS V14.01,2013-07-22 20:06:00,
2013-07-22 16:11:00,84.8,75.2,29.93,WSW,257,3.0,8.0,73,0.00,,---,0.01,VWS V14.01,2013-07-22 20:11:00,
2013-07-22 16:16:00,85.4,74.5,29.92,SE,128,0.0,3.0,70,0.00,,---,0.01,VWS V14.01,2013-07-22 20:16:00,
2013-07-22 16:17:00,85.4,74.9,29.92,SW,225,0.0,4.0,71,0.00,,---,0.01,VWS V14.01,2013-07-22 20:17:00,
2013-07-22 16:18:00,85.3,74.4,29.92,SSW,197,4.0,4.0,70,0.00,,---,0.01,VWS V14.01,2013-07-22 20:18:00,
2013-07-22 16:19:00,85.0,74.1,29.92,SSE,151,1.0,5.0,70,0.00,,---,0.01,VWS V14.01,2013-07-22 20:19:00,
2013-07-22 16:24:00,85.3,74.8,29.92,SSW,211,3.0,7.0,71,0.00,,---,0.01,VWS V14.01,2013-07-22 20:24:00,
2013-07-22 16:30:00,85.2,74.3,29.92,SSW,194,4.0,7.0,70,0.00,,---,0.01,VWS V14.01,2013-07-22 20:30:00,
2013-07-22 16:35:00,85.5,74.2,29.92,SSW,192,0.0,7.0,69,0.00,,---,0.01,VWS V14.01,2013-07-22 20:35:00,
2013-07-22 16:40:00,86.0,75.1,29.92,West,267,1.0,7.0,70,0.00,,---,0.01,VWS V14.01,2013-07-22 20:40:00,
2013-07-22 16:43:00,86.1,74.8,29.92,SSW,208,1.0,7.0,69,0.00,,---,0.01,VWS V14.01,2013-07-22 20:43:00,
2013-07-22 16:49:00,85.4,74.1,29.92,SSE,165,1.0,7.0,69,0.00,,---,0.01,VWS V14.01,2013-07-22 20:49:00,
2013-07-22 16:54:00,85.4,74.1,29.91,SSW,208,2.0,7.0,69,0.00,,---,0.01,VWS V14.01,2013-07-22 20:54:00,
2013-07-22 16:59:00,85.5,74.2,29.91,SSE,155,4.0,8.0,69,0.00,,---,0.01,VWS V14.01,2013-07-22 20:59:00,
2013-07-22 17:04:00,85.5,74.6,29.91,NNW,340,1.0,6.0,70,0.00,,---,0.01,VWS V14.01,2013-07-22 21:04:00,
2013-07-22 17:09:00,85.5,75.4,29.91,NW,317,2.0,6.0,72,0.00,,---,0.01,VWS V14.01,2013-07-22 21:09:00,
2013-07-22 17:14:00,85.7,74.8,29.91,West,273,3.0,6.0,70,0.00,,---,0.01,VWS V14.01,2013-07-22 21:14:00,
2013-07-22 17:19:00,85.3,74.4,29.91,West,265,0.0,7.0,70,0.00,,---,0.01,VWS V14.01,2013-07-22 21:19:00,
2013-07-22 17:25:00,84.8,74.4,29.91,WNW,288,6.0,7.0,71,0.00,,---,0.01,VWS V14.01,2013-07-22 21:25:00,
2013-07-22 17:30:00,84.8,74.8,29.90,NNW,327,2.0,7.0,72,0.00,,---,0.01,VWS V14.01,2013-07-22 21:30:00,
2013-07-22 17:35:00,85.3,74.8,29.90,SSW,200,5.0,7.0,71,0.00,,---,0.01,VWS V14.01,2013-07-22 21:35:00,
2013-07-22 17:40:00,84.7,74.7,29.90,NW,319,4.0,8.0,72,0.00,,---,0.01,VWS V14.01,2013-07-22 21:40:00,
2013-07-22 17:45:00,85.2,75.2,29.90,West,269,2.0,8.0,72,0.00,,---,0.01,VWS V14.01,2013-07-22 21:45:00,
2013-07-22 17:50:00,84.8,74.4,29.90,South,188,2.0,9.0,71,0.00,,---,0.01,VWS V14.01,2013-07-22 21:50:00,
2013-07-22 17:55:00,84.5,75.3,29.90,SSW,199,4.0,9.0,74,0.00,,---,0.01,VWS V14.01,2013-07-22 21:55:00,
2013-07-22 18:01:00,84.3,74.7,29.89,SW,223,2.0,5.0,73,0.00,,---,0.01,VWS V14.01,2013-07-22 22:01:00,
2013-07-22 18:06:00,83.8,74.6,29.89,SSE,165,1.0,5.0,74,0.00,,---,0.01,VWS V14.01,2013-07-22 22:06:00,
2013-07-22 18:11:00,83.5,74.3,29.89,SW,225,1.0,6.0,74,0.00,,---,0.01,VWS V14.01,2013-07-22 22:11:00,
2013-07-22 18:16:00,83.7,74.9,29.89,WSW,240,6.0,6.0,75,0.00,,---,0.01,VWS V14.01,2013-07-22 22:16:00,
2013-07-22 18:21:00,83.6,74.4,29.89,SSE,165,3.0,7.0,74,0.00,,---,0.01,VWS V14.01,2013-07-22 22:21:00,
2013-07-22 18:26:00,83.7,74.9,29.89,South,188,1.0,7.0,75,0.00,,---,0.01,VWS V14.01,2013-07-22 22:26:00,
2013-07-22 18:31:00,83.9,74.7,29.89,South,184,0.0,4.0,74,0.00,,---,0.01,VWS V14.01,2013-07-22 22:31:00,
2013-07-22 18:36:00,84.0,74.4,29.89,South,179,3.0,10.0,73,0.00,,---,0.01,VWS V14.01,2013-07-22 22:36:00,
2013-07-22 18:42:00,83.6,74.0,29.89,SSW,207,7.0,12.0,73,0.00,,---,0.01,VWS V14.01,2013-07-22 22:42:00,
2013-07-22 18:47:00,83.2,74.1,29.89,WSW,249,1.0,8.0,74,0.00,,---,0.01,VWS V14.01,2013-07-22 22:47:00,
2013-07-22 18:52:00,83.1,74.4,29.89,SE,146,2.0,8.0,75,0.00,,---,0.01,VWS V14.01,2013-07-22 22:52:00,
2013-07-22 18:57:00,83.2,74.5,29.89,SW,225,3.0,8.0,75,0.00,,---,0.01,VWS V14.01,2013-07-22 22:57:00,
2013-07-22 19:02:00,83.0,74.3,29.89,WNW,299,1.0,3.0,75,0.00,,---,0.01,VWS V14.01,2013-07-22 23:02:00,
2013-07-22 19:07:00,82.7,74.4,29.89,WNW,294,1.0,6.0,76,0.00,,---,0.01,VWS V14.01,2013-07-22 23:07:00,
2013-07-22 19:12:00,82.4,73.7,29.89,WSW,252,1.0,7.0,75,0.00,,---,0.01,VWS V14.01,2013-07-22 23:12:00,
2013-07-22 19:18:00,82.2,73.5,29.89,SSW,203,5.0,7.0,75,0.00,,---,0.01,VWS V14.01,2013-07-22 23:18:00,
2013-07-22 19:23:00,82.1,73.8,29.89,SSE,158,3.0,8.0,76,0.00,,---,0.01,VWS V14.01,2013-07-22 23:23:00,
2013-07-22 19:28:00,82.3,74.0,29.89,SSW,210,1.0,8.0,76,0.00,,---,0.01,VWS V14.01,2013-07-22 23:28:00,
2013-07-22 19:33:00,82.1,73.8,29.88,South,187,3.0,7.0,76,0.00,,---,0.01,VWS V14.01,2013-07-22 23:33:00,
2013-07-22 19:38:00,82.0,73.7,29.88,SSW,204,3.0,8.0,76,0.00,,---,0.01,VWS V14.01,2013-07-22 23:38:00,
2013-07-22 19:43:00,81.9,73.6,29.88,NW,319,2.0,8.0,76,0.00,,---,0.01,VWS V14.01,2013-07-22 23:43:00,
2013-07-22 19:48:00,81.9,73.6,29.89,SSW,202,6.0,6.0,76,0.00,,---,0.01,VWS V14.01,2013-07-22 23:48:00,
2013-07-22 19:54:00,81.9,73.6,29.89,West,263,0.0,7.0,76,0.00,,---,0.01,VWS V14.01,2013-07-22 23:54:00,
2013-07-22 19:59:00,81.6,73.7,29.89,SSW,211,0.0,7.0,77,0.00,,---,0.01,VWS V14.01,2013-07-22 23:59:00,
2013-07-22 20:04:00,81.3,73.8,29.88,SW,219,3.0,5.0,78,0.00,,---,0.01,VWS V14.01,2013-07-23 00:04:00,
2013-07-22 20:09:00,81.1,73.6,29.89,SW,222,1.0,5.0,78,0.00,,---,0.01,VWS V14.01,2013-07-23 00:09:00,
2013-07-22 20:14:00,80.9,73.4,29.89,SSW,200,3.0,5.0,78,0.00,,---,0.01,VWS V14.01,2013-07-23 00:14:00,
2013-07-22 20:19:00,80.6,73.5,29.89,SSW,205,1.0,3.0,79,0.00,,---,0.01,VWS V14.01,2013-07-23 00:19:00,
2013-07-22 20:25:00,80.4,73.3,29.89,WNW,295,1.0,3.0,79,0.00,,---,0.01,VWS V14.01,2013-07-23 00:25:00,
2013-07-22 20:30:00,80.2,73.5,29.89,SW,230,0.0,3.0,80,0.00,,---,0.01,VWS V14.01,2013-07-23 00:30:00,
2013-07-22 20:35:00,79.9,73.2,29.89,SSW,205,1.0,5.0,80,0.00,,---,0.01,VWS V14.01,2013-07-23 00:35:00,
2013-07-22 20:40:00,79.7,73.4,29.89,SW,232,2.0,9.0,81,0.00,,---,0.01,VWS V14.01,2013-07-23 00:40:00,
2013-07-22 20:45:00,79.6,73.3,29.89,South,190,0.0,9.0,81,0.00,,---,0.01,VWS V14.01,2013-07-23 00:45:00,
2013-07-22 20:50:00,79.4,73.1,29.89,SW,225,2.0,4.0,81,0.00,,---,0.01,VWS V14.01,2013-07-23 00:50:00,
2013-07-22 20:55:00,79.3,73.0,29.89,SSW,208,3.0,5.0,81,0.00,,---,0.01,VWS V14.01,2013-07-23 00:55:00,
2013-07-22 21:01:00,79.1,73.1,29.89,WSW,248,1.0,4.0,82,0.00,,---,0.01,VWS V14.01,2013-07-23 01:01:00,
2013-07-22 21:06:00,79.0,73.0,29.89,SSW,194,1.0,4.0,82,0.00,,---,0.01,VWS V14.01,2013-07-23 01:06:00,
2013-07-22 21:11:00,78.8,72.8,29.90,SSW,198,0.0,7.0,82,0.00,,---,0.01,VWS V14.01,2013-07-23 01:11:00,
2013-07-22 21:16:00,78.7,73.1,29.89,West,259,1.0,3.0,83,0.00,,---,0.01,VWS V14.01,2013-07-23 01:16:00,
2013-07-22 21:21:00,78.5,72.9,29.89,SSW,211,0.0,6.0,83,0.00,,---,0.01,VWS V14.01,2013-07-23 01:21:00,
2013-07-22 21:26:00,78.4,72.8,29.89,WNW,282,4.0,6.0,83,0.00,,---,0.01,VWS V14.01,2013-07-23 01:26:00,
2013-07-22 21:31:00,78.3,72.7,29.89,SSW,206,2.0,4.0,83,0.00,,---,0.01,VWS V14.01,2013-07-23 01:31:00,
2013-07-22 21:37:00,78.1,72.5,29.89,SSW,200,1.0,6.0,83,0.00,,---,0.01,VWS V14.01,2013-07-23 01:37:00,
2013-07-22 21:42:00,78.0,72.4,29.90,ESE,122,0.0,6.0,83,0.00,,---,0.01,VWS V14.01,2013-07-23 01:42:00,
2013-07-22 21:47:00,77.9,72.7,29.90,South,176,0.0,3.0,84,0.00,,---,0.01,VWS V14.01,2013-07-23 01:47:00,
2013-07-22 21:52:00,77.8,72.6,29.90,SW,217,1.0,5.0,84,0.00,,---,0.01,VWS V14.01,2013-07-23 01:52:00,
2013-07-22 21:57:00,77.6,72.4,29.90,WSW,240,4.0,5.0,84,0.00,,---,0.01,VWS V14.01,2013-07-23 01:57:00,
2013-07-22 22:02:00,77.6,72.7,29.90,SSW,211,0.0,4.0,85,0.00,,---,0.01,VWS V14.01,2013-07-23 02:02:00,
2013-07-22 22:07:00,77.5,72.6,29.90,WSW,253,3.0,6.0,85,0.00,,---,0.01,VWS V14.01,2013-07-23 02:07:00,
2013-07-22 22:12:00,77.5,72.6,29.90,SSE,166,0.0,6.0,85,0.00,,---,0.01,VWS V14.01,2013-07-23 02:12:00,
2013-07-22 22:17:00,77.3,72.4,29.91,NW,305,0.0,3.0,85,0.00,,---,0.01,VWS V14.01,2013-07-23 02:17:00,
2013-07-22 22:22:00,77.3,72.4,29.91,SW,223,0.0,5.0,85,0.00,,---,0.01,VWS V14.01,2013-07-23 02:22:00,
2013-07-22 22:28:00,77.2,72.3,29.91,WSW,243,2.0,6.0,85,0.00,,---,0.01,VWS V14.01,2013-07-23 02:28:00,
2013-07-22 22:33:00,77.1,72.2,29.90,WSW,243,0.0,8.0,85,0.00,,---,0.01,VWS V14.01,2013-07-23 02:33:00,
2013-07-22 22:38:00,77.1,72.6,29.90,West,275,2.0,8.0,86,0.00,,---,0.01,VWS V14.01,2013-07-23 02:38:00,
2013-07-22 22:43:00,77.0,72.5,29.91,WSW,242,0.0,8.0,86,0.00,,---,0.01,VWS V14.01,2013-07-23 02:43:00,
2013-07-22 22:48:00,76.9,72.4,29.90,South,178,0.0,3.0,86,0.00,,---,0.01,VWS V14.01,2013-07-23 02:48:00,
2013-07-22 22:53:00,76.8,72.3,29.91,South,180,1.0,4.0,86,0.00,,---,0.01,VWS V14.01,2013-07-23 02:53:00,
2013-07-22 22:58:00,76.7,72.2,29.91,South,188,0.0,7.0,86,0.00,,---,0.01,VWS V14.01,2013-07-23 02:58:00,
2013-07-22 23:03:00,76.7,72.5,29.91,SW,223,3.0,5.0,87,0.00,,---,0.01,VWS V14.01,2013-07-23 03:03:00,
2013-07-22 23:08:00,76.6,72.1,29.90,West,269,3.0,5.0,86,0.00,,---,0.01,VWS V14.01,2013-07-23 03:08:00,
2013-07-22 23:13:00,76.6,72.4,29.90,NNW,331,0.0,5.0,87,0.00,,---,0.01,VWS V14.01,2013-07-23 03:13:00,
2013-07-22 23:19:00,76.5,72.3,29.90,SW,236,0.0,6.0,87,0.00,,---,0.01,VWS V14.01,2013-07-23 03:19:00,
2013-07-22 23:24:00,76.5,72.3,29.91,SSE,159,0.0,7.0,87,0.00,,---,0.01,VWS V14.01,2013-07-23 03:24:00,
2013-07-22 23:29:00,76.5,72.3,29.91,SW,234,4.0,7.0,87,0.00,,---,0.01,VWS V14.01,2013-07-23 03:29:00,
2013-07-22 23:34:00,76.4,72.2,29.91,West,269,0.0,5.0,87,0.00,,---,0.01,VWS V14.01,2013-07-23 03:34:00,
2013-07-22 23:39:00,76.3,72.2,29.91,WNW,286,0.0,5.0,87,0.00,,---,0.01,VWS V14.01,2013-07-23 03:39:00,
2013-07-22 23:44:00,76.2,72.1,29.91,WSW,255,1.0,9.0,87,0.00,,---,0.01,VWS V14.01,2013-07-23 03:44:00,
2013-07-22 23:49:00,76.2,72.1,29.91,West,267,4.0,4.0,87,0.00,,---,0.01,VWS V14.01,2013-07-23 03:49:00,
2013-07-22 23:54:00,76.1,71.9,29.90,SW,234,0.0,5.0,87,0.00,,---,0.01,VWS V14.01,2013-07-23 03:54:00,
2013-07-22 23:59:00,76.1,71.9,29.90,SW,232,1.0,5.0,87,0.00,,---,0.01,VWS V14.01,2013-07-23 03:59:00,